Time,TemperatureF,DewpointF,PressureIn,WindDirection,WindDirectionDegrees,WindSpeedMPH,WindSpeedGustMPH,Humidity,HourlyPrecipIn,Conditions,Clouds,dailyrainin,SoftwareType,DateUTC
2013-03-31 00:03:00,50.0,-99.9,30.03,SE,131,0.0,0.0,100,0.01,,,0.02,,2013-03-31 04:03:00,
2013-03-31 00:13:00,50.0,50.0,30.03,SE,131,0.0,0.0,100,0.01,,,0.02,,2013-03-31 04:13:00,
2013-03-31 00:23:00,50.0,50.0,30.02,SE,131,0.0,0.0,100,0.01,,,0.02,,2013-03-31 04:23:00,
2013-03-31 00:33:00,50.0,50.0,30.02,SE,131,0.0,0.0,100,0.01,,,0.02,,2013-03-31 04:33:00,
2013-03-31 00:42:00,50.0,50.0,30.02,SE,131,0.0,0.0,100,0.01,,,0.02,,2013-03-31 04:42:00,
2013-03-31 00:52:00,50.0,50.0,30.01,SE,131,0.0,0.0,100,0.00,,,0.04,,2013-03-31 04:52:00,
2013-03-31 01:02:00,50.0,50.0,30.00,SE,131,0.0,0.0,100,0.01,,,0.05,,2013-03-31 05:02:00,
2013-03-31 01:12:00,50.0,50.0,30.00,SE,131,0.0,0.0,100,0.01,,,0.05,,2013-03-31 05:12:00,
2013-03-31 01:22:00,50.0,50.0,30.00,SE,131,0.0,0.0,100,0.03,,,0.05,,2013-03-31 05:22:00,
2013-03-31 01:32:00,50.0,50.0,29.98,SE,131,0.0,0.0,100,0.01,,,0.05,,2013-03-31 05:32:00,
2013-03-31 01:42:00,50.0,50.0,29.98,SE,131,0.0,0.0,100,0.01,,,0.05,,2013-03-31 05:42:00,
2013-03-31 01:52:00,50.0,50.0,29.99,SE,131,0.0,0.0,100,0.01,,,0.05,,2013-03-31 05:52:00,
2013-03-31 02:02:00,50.0,50.0,29.98,SE,131,0.0,0.0,100,0.00,,,0.05,,2013-03-31 06:02:00,
2013-03-31 02:12:00,50.0,50.0,29.98,SE,131,0.0,0.0,100,0.00,,,0.05,,2013-03-31 06:12:00,
2013-03-31 02:22:00,50.0,50.0,29.98,SE,131,0.0,0.0,100,0.00,,,0.05,,2013-03-31 06:22:00,
2013-03-31 02:30:00,50.0,50.0,29.96,SE,131,0.0,0.0,100,0.00,,,0.05,,2013-03-31 06:30:00,
2013-03-31 02:32:00,50.0,50.0,29.97,SE,131,0.0,0.0,100,0.00,,,0.05,,2013-03-31 06:32:00,
2013-03-31 02:42:00,50.0,50.0,29.97,SE,131,0.0,0.0,100,0.00,,,0.05,,2013-03-31 06:42:00,
2013-03-31 02:52:00,50.0,50.0,29.96,SE,131,0.0,0.0,100,0.00,,,0.05,,2013-03-31 06:52:00,
2013-03-31 03:02:00,50.0,50.0,29.96,SE,131,0.0,0.0,100,0.00,,,0.05,,2013-03-31 07:02:00,
2013-03-31 03:12:00,50.0,50.0,29.96,SE,131,0.0,0.0,100,0.00,,,0.05,,2013-03-31 07:12:00,
2013-03-31 03:22:00,50.0,50.0,29.96,SE,131,0.0,0.0,100,0.00,,,0.05,,2013-03-31 07:22:00,
2013-03-31 04:00:00,51.0,51.0,29.92,SE,131,0.0,0.0,100,0.02,,,0.07,,2013-03-31 08:00:00,
2013-03-31 04:22:00,51.0,51.0,29.92,SE,131,0.0,0.0,100,0.02,,,0.07,,2013-03-31 08:22:00,
2013-03-31 04:33:00,51.0,51.0,29.92,SE,131,0.0,0.0,100,0.02,,,0.07,,2013-03-31 08:33:00,
2013-03-31 04:42:00,51.0,51.0,29.92,SE,131,0.0,0.0,100,0.02,,,0.07,,2013-03-31 08:42:00,
2013-03-31 04:52:00,51.0,51.0,29.92,SE,131,0.0,0.0,100,0.02,,,0.07,,2013-03-31 08:52:00,
2013-03-31 05:33:00,50.0,50.0,29.90,SE,131,0.0,0.0,100,0.00,,,0.07,,2013-03-31 09:33:00,
2013-03-31 05:43:00,50.0,50.0,29.90,SE,131,0.0,0.0,100,0.00,,,0.07,,2013-03-31 09:43:00,
2013-03-31 05:53:00,50.0,50.0,29.90,SE,131,0.0,0.0,100,0.00,,,0.07,,2013-03-31 09:53:00,
2013-03-31 06:03:00,51.0,51.0,29.90,SE,131,0.0,0.0,100,0.00,,,0.07,,2013-03-31 10:03:00,
2013-03-31 06:13:00,51.0,51.0,29.90,SE,131,0.0,0.0,100,0.00,,,0.07,,2013-03-31 10:13:00,
2013-03-31 06:24:00,51.0,51.0,29.90,SE,131,0.0,0.0,100,0.00,,,0.07,,2013-03-31 10:24:00,
2013-03-31 06:33:00,51.0,51.0,29.90,SE,131,0.0,0.0,100,0.01,,,0.08,,2013-03-31 10:33:00,
2013-03-31 06:42:00,51.0,51.0,29.90,SE,131,0.0,0.0,100,0.01,,,0.08,,2013-03-31 10:42:00,
2013-03-31 06:53:00,51.0,51.0,29.90,SE,131,0.0,0.0,100,0.01,,,0.08,,2013-03-31 10:53:00,
2013-03-31 07:03:00,51.0,51.0,29.90,SE,131,0.0,0.0,100,0.01,,,0.08,,2013-03-31 11:03:00,
2013-03-31 07:12:00,51.0,51.0,29.90,SE,131,0.0,0.0,100,0.01,,,0.08,,2013-03-31 11:12:00,
2013-03-31 07:23:00,51.0,51.0,29.90,SE,131,0.0,0.0,100,0.01,,,0.08,,2013-03-31 11:23:00,
2013-03-31 07:32:00,51.0,51.0,29.90,SE,131,0.0,0.0,100,0.00,,,0.08,,2013-03-31 11:32:00,
2013-03-31 07:43:00,51.0,51.0,29.90,SE,131,0.0,0.0,100,0.00,,,0.08,,2013-03-31 11:43:00,
2013-03-31 07:53:00,52.0,52.0,29.90,SE,131,0.0,0.0,100,0.00,,,0.08,,2013-03-31 11:53:00,
2013-03-31 08:03:00,52.0,52.0,29.91,SE,131,0.0,0.0,100,0.00,,,0.08,,2013-03-31 12:03:00,
2013-03-31 08:12:00,52.0,52.0,29.91,SE,131,0.0,0.0,100,0.00,,,0.08,,2013-03-31 12:12:00,
2013-03-31 08:22:00,52.0,52.0,29.91,SE,131,0.0,0.0,100,0.01,,,0.09,,2013-03-31 12:22:00,
2013-03-31 08:33:00,52.0,52.0,29.91,SE,131,0.0,0.0,100,0.01,,,0.09,,2013-03-31 12:33:00,
2013-03-31 08:42:00,52.0,52.0,29.91,SE,131,0.0,0.0,100,0.01,,,0.09,,2013-03-31 12:42:00,
2013-03-31 08:52:00,53.0,53.0,29.91,SE,131,0.0,0.0,100,0.01,,,0.09,,2013-03-31 12:52:00,
2013-03-31 09:02:00,53.0,53.0,29.92,SE,131,0.0,0.0,100,0.01,,,0.09,,2013-03-31 13:02:00,
2013-03-31 09:12:00,53.0,53.0,29.92,SE,131,0.0,0.0,100,0.01,,,0.09,,2013-03-31 13:12:00,
2013-03-31 09:22:00,53.0,53.0,29.92,SE,131,0.0,0.0,100,0.01,,,0.09,,2013-03-31 13:22:00,
2013-03-31 09:32:00,54.0,54.0,29.92,South,182,1.0,7.0,100,0.00,,,0.09,,2013-03-31 13:32:00,
2013-03-31 09:42:00,54.0,54.0,29.92,South,182,1.0,7.0,100,0.00,,,0.09,,2013-03-31 13:42:00,
2013-03-31 09:53:00,54.0,54.0,29.92,South,182,1.0,7.0,100,0.00,,,0.09,,2013-03-31 13:53:00,
2013-03-31 10:03:00,55.0,55.0,29.92,SW,234,1.0,7.0,100,0.00,,,0.09,,2013-03-31 14:03:00,
2013-03-31 10:12:00,55.0,55.0,29.92,SW,234,1.0,7.0,100,0.00,,,0.09,,2013-03-31 14:12:00,
2013-03-31 10:22:00,56.0,56.0,29.93,SW,234,0.0,0.0,100,0.00,,,0.09,,2013-03-31 14:22:00,
2013-03-31 10:33:00,56.0,56.0,29.93,SW,234,0.0,0.0,100,0.00,,,0.09,,2013-03-31 14:33:00,
2013-03-31 10:42:00,56.0,56.0,29.93,SW,234,0.0,0.0,100,0.00,,,0.09,,2013-03-31 14:42:00,
2013-03-31 10:52:00,56.0,56.0,29.92,SW,234,0.0,0.0,100,0.00,,,0.09,,2013-03-31 14:52:00,
2013-03-31 11:03:00,57.0,57.0,29.91,South,179,1.0,3.0,100,0.00,,,0.09,,2013-03-31 15:03:00,
2013-03-31 11:13:00,57.0,57.0,29.91,South,179,1.0,3.0,100,0.00,,,0.09,,2013-03-31 15:13:00,
2013-03-31 11:22:00,58.0,58.0,29.92,NW,306,0.0,6.0,100,0.00,,,0.09,,2013-03-31 15:22:00,
2013-03-31 11:33:00,59.0,59.0,29.91,WNW,292,0.0,7.0,100,0.00,,,0.09,,2013-03-31 15:33:00,
2013-03-31 11:40:00,59.0,58.0,29.91,WSW,243,0.0,7.0,98,0.00,,,0.09,,2013-03-31 15:40:00,
2013-03-31 11:43:00,59.0,59.0,29.91,WNW,292,0.0,7.0,100,0.00,,,0.09,,2013-03-31 15:43:00,
2013-03-31 11:53:00,59.0,59.0,29.91,WNW,292,0.0,7.0,100,0.00,,,0.09,,2013-03-31 15:53:00,
2013-03-31 12:03:00,59.0,58.0,29.91,WSW,243,0.0,7.0,98,0.00,,,0.09,,2013-03-31 16:03:00,
2013-03-31 12:13:00,59.0,58.0,29.91,WSW,243,0.0,7.0,98,0.00,,,0.09,,2013-03-31 16:13:00,
2013-03-31 12:23:00,59.0,58.0,29.91,WSW,243,0.0,7.0,98,0.00,,,0.09,,2013-03-31 16:23:00,
2013-03-31 12:33:00,59.0,58.0,29.91,WSW,243,0.0,7.0,98,0.00,,,0.09,,2013-03-31 16:33:00,
2013-03-31 13:03:00,61.0,57.0,29.91,WSW,256,0.0,9.0,88,0.00,,,0.09,,2013-03-31 17:03:00,
2013-03-31 13:13:00,61.0,57.0,29.91,WSW,256,0.0,9.0,88,0.00,,,0.09,,2013-03-31 17:13:00,
2013-03-31 13:23:00,61.0,57.0,29.91,WSW,256,0.0,9.0,88,0.00,,,0.09,,2013-03-31 17:23:00,
2013-03-31 13:32:00,59.0,57.0,29.91,SW,233,0.0,6.0,94,0.00,,,0.09,,2013-03-31 17:32:00,
2013-03-31 13:43:00,59.0,57.0,29.91,SW,233,0.0,6.0,94,0.00,,,0.09,,2013-03-31 17:43:00,
2013-03-31 13:52:00,59.0,57.0,29.91,SW,233,0.0,6.0,94,0.00,,,0.09,,2013-03-31 17:52:00,
2013-03-31 14:03:00,60.0,58.0,29.91,NW,309,1.0,5.0,94,0.00,,,0.09,,2013-03-31 18:03:00,
2013-03-31 14:13:00,60.0,58.0,29.91,NW,309,1.0,5.0,94,0.00,,,0.09,,2013-03-31 18:13:00,
2013-03-31 14:22:00,60.0,58.0,29.91,NW,309,1.0,5.0,94,0.00,,,0.09,,2013-03-31 18:22:00,
2013-03-31 14:33:00,60.0,58.0,29.91,WSW,237,0.0,6.0,93,0.00,,,0.09,,2013-03-31 18:33:00,
2013-03-31 14:42:00,60.0,58.0,29.91,WSW,237,0.0,6.0,93,0.00,,,0.09,,2013-03-31 18:42:00,
2013-03-31 14:52:00,61.0,59.0,29.91,WNW,295,2.0,7.0,93,0.00,,,0.09,,2013-03-31 18:52:00,
2013-03-31 15:03:00,62.0,58.0,29.89,SSW,200,1.0,6.0,86,0.00,,,0.09,,2013-03-31 19:03:00,
2013-03-31 15:10:00,60.0,58.0,29.90,SSW,208,0.0,9.0,93,0.00,,,0.09,,2013-03-31 19:10:00,
2013-03-31 15:12:00,62.0,58.0,29.89,SSW,200,1.0,6.0,86,0.00,,,0.09,,2013-03-31 19:12:00,
2013-03-31 15:22:00,62.0,58.0,29.89,SSW,200,1.0,6.0,86,0.00,,,0.09,,2013-03-31 19:22:00,
2013-03-31 15:33:00,60.0,58.0,29.90,SSW,208,0.0,9.0,93,0.00,,,0.09,,2013-03-31 19:33:00,
2013-03-31 15:43:00,60.0,58.0,29.90,SSW,208,0.0,9.0,93,0.00,,,0.09,,2013-03-31 19:43:00,
2013-03-31 15:53:00,60.0,58.0,29.90,SSW,208,0.0,9.0,93,0.00,,,0.09,,2013-03-31 19:53:00,
2013-03-31 16:03:00,60.0,58.0,29.90,SSW,208,0.0,9.0,93,0.00,,,0.09,,2013-03-31 20:03:00,
2013-03-31 16:23:00,59.0,58.0,29.89,NW,308,0.0,7.0,95,0.00,,,0.09,,2013-03-31 20:23:00,
2013-03-31 16:34:00,59.0,58.0,29.89,WSW,249,2.0,8.0,96,0.00,,,0.09,,2013-03-31 20:34:00,
2013-03-31 16:43:00,59.0,58.0,29.89,WSW,249,2.0,8.0,96,0.00,,,0.09,,2013-03-31 20:43:00,
2013-03-31 16:53:00,59.0,58.0,29.89,WSW,249,2.0,8.0,96,0.00,,,0.09,,2013-03-31 20:53:00,
2013-03-31 17:02:00,58.0,58.0,29.89,SW,226,0.0,0.0,99,0.00,,,0.09,,2013-03-31 21:02:00,
2013-03-31 17:12:00,58.0,58.0,29.89,SW,226,0.0,0.0,99,0.00,,,0.09,,2013-03-31 21:12:00,
2013-03-31 17:20:00,58.0,58.0,29.89,SW,226,0.0,0.0,100,0.00,,,0.09,,2013-03-31 21:20:00,
2013-03-31 17:22:00,58.0,58.0,29.89,SW,226,0.0,0.0,99,0.00,,,0.09,,2013-03-31 21:22:00,
2013-03-31 17:34:00,58.0,58.0,29.89,SW,226,0.0,0.0,100,0.00,,,0.09,,2013-03-31 21:34:00,
2013-03-31 17:43:00,58.0,58.0,29.89,SW,226,0.0,0.0,100,0.00,,,0.09,,2013-03-31 21:43:00,
2013-03-31 17:54:00,58.0,58.0,29.89,SW,226,0.0,0.0,100,0.00,,,0.09,,2013-03-31 21:54:00,
2013-03-31 18:04:00,58.0,58.0,29.89,SW,226,0.0,0.0,100,0.00,,,0.09,,2013-03-31 22:04:00,
2013-03-31 18:13:00,58.0,58.0,29.89,SW,226,0.0,0.0,100,0.00,,,0.09,,2013-03-31 22:13:00,
2013-03-31 20:03:00,55.0,55.0,29.88,WNW,288,0.0,0.0,100,0.00,,,0.09,,2013-04-01 00:03:00,
2013-03-31 20:10:00,55.0,55.0,29.88,WNW,288,0.0,0.0,100,0.00,,,0.09,,2013-04-01 00:10:00,
2013-03-31 20:13:00,55.0,55.0,29.88,WNW,288,0.0,0.0,100,0.00,,,0.09,,2013-04-01 00:13:00,
2013-03-31 20:22:00,55.0,55.0,29.88,WNW,288,0.0,0.0,100,0.00,,,0.09,,2013-04-01 00:22:00,
2013-03-31 20:32:00,55.0,55.0,29.88,WNW,288,0.0,0.0,100,0.00,,,0.09,,2013-04-01 00:32:00,
2013-03-31 20:43:00,55.0,55.0,29.88,WNW,288,0.0,0.0,100,0.00,,,0.09,,2013-04-01 00:43:00,
2013-03-31 20:52:00,55.0,55.0,29.88,WNW,288,0.0,0.0,100,0.00,,,0.09,,2013-04-01 00:52:00,
2013-03-31 21:03:00,55.0,55.0,29.88,WNW,288,0.0,0.0,100,0.00,,,0.09,,2013-04-01 01:03:00,
2013-03-31 21:33:00,53.0,53.0,29.89,WNW,288,0.0,0.0,100,0.00,,,0.09,,2013-04-01 01:33:00,
2013-03-31 21:43:00,53.0,53.0,29.89,WNW,288,0.0,0.0,100,0.00,,,0.09,,2013-04-01 01:43:00,
2013-03-31 21:53:00,53.0,53.0,29.89,WNW,288,0.0,0.0,100,0.00,,,0.09,,2013-04-01 01:53:00,
2013-03-31 22:03:00,52.0,52.0,29.90,WNW,288,0.0,0.0,100,0.00,,,0.09,,2013-04-01 02:03:00,
2013-03-31 22:13:00,52.0,52.0,29.90,WNW,288,0.0,0.0,100,0.00,,,0.09,,2013-04-01 02:13:00,
2013-03-31 22:23:00,52.0,52.0,29.90,WNW,288,0.0,0.0,100,0.00,,,0.09,,2013-04-01 02:23:00,
2013-03-31 22:30:00,52.0,52.0,29.91,WNW,288,0.0,0.0,100,0.00,,,0.09,,2013-04-01 02:30:00,
2013-03-31 22:33:00,52.0,52.0,29.90,WNW,288,0.0,0.0,100,0.00,,,0.09,,2013-04-01 02:33:00,
2013-03-31 22:42:00,52.0,52.0,29.90,WNW,288,0.0,0.0,100,0.00,,,0.09,,2013-04-01 02:42:00,
2013-03-31 22:52:00,52.0,52.0,29.91,WNW,288,0.0,0.0,100,0.00,,,0.09,,2013-04-01 02:52:00,
2013-03-31 23:03:00,52.0,52.0,29.91,WNW,288,0.0,0.0,100,0.00,,,0.09,,2013-04-01 03:03:00,
2013-03-31 23:12:00,52.0,52.0,29.91,WNW,288,0.0,0.0,100,0.00,,,0.09,,2013-04-01 03:12:00,
2013-03-31 23:22:00,52.0,52.0,29.91,WNW,288,0.0,0.0,100,0.00,,,0.09,,2013-04-01 03:22:00,